Location: Unspecified
(49.2170°N, 0.0000°E)
Time: 07:37:46
(UTC+00:00)

Vanguard 3 - Pass Details

Date: 29 January 2021
Orbit: 508 x 3262 km, 33.4° (Epoch: 08 March)

Event Time Altitude Azimuth Distance (km) Brightness Sun altitude
Rises 06:43:17 0° 256° (WSW) 4,069 - -8.7°
Exits shadow 06:44:00 - 253° (WSW) 3,915 10.1 -8.5°
Reaches altitude 10° 06:46:29 10° 240° (WSW) 3,478 10.0 -8.2°
Maximum altitude 06:53:02 22° 195° (SSW) 3,362 10.3 -7.1°
Drops below altitude 10° 07:02:19 10° 153° (SSE) 5,108 12.0 -5.7°
Sets 07:08:31 0° 141° (SE) 6,585 13.0 -4.8°
